Weather reports worldwide

Advertisment
Bologna/Borgo Panigale, Italy (16140): temperature & dewpoint: 18.08.2019 07:00:00 - 24.08.2019 07:00:00 (CEST)Bologna/Borgo Panigale, Italy (16140): wind speed: 18.08.2019 07:00:00 - 24.08.2019 07:00:00 (CEST)Bologna/Borgo Panigale, Italy (16140): wind direction: 18.08.2019 07:00:00 - 24.08.2019 07:00:00 (CEST)Bologna/Borgo Panigale, Italy (16140): reduced air pressure: 18.08.2019 07:00:00 - 24.08.2019 07:00:00 (CEST)Bologna/Borgo Panigale, Italy (16140): visibility: 18.08.2019 07:00:00 - 24.08.2019 07:00:00 (CEST)Bologna/Borgo Panigale, Italy (16140): precipitation: 18.08.2019 07:00:00 - 24.08.2019 07:00:00 (CEST)
Date & Time tt [°C] td [°C] ff [km/h] ff [kn] dd ppp [hPa] vv [km] rr [mm]
24.08.2019 07:00:00 21,0 19,0 5 3 SW - 10 -
24.08.2019 06:00:00 21,0 19,0 9 5 SSW - 10 -
24.08.2019 05:00:00 20,7 18,8 5 3 SW 1019,8 10 0,0
24.08.2019 04:00:00 21,0 19,0 8 4 SW - 10 -
24.08.2019 03:00:00 21,0 19,0 5 3 SW - 10 -
24.08.2019 02:00:00 21,1 18,9 5 3 SSW 1020,1 10 -
24.08.2019 01:00:00 21,0 19,0 5 3 SSW - 10 -
24.08.2019 00:00:00 21,0 19,0 8 4 SW - 10 -
23.08.2019 23:00:00 21,8 20,0 4 2 - 1020,4 10 0,0
23.08.2019 22:00:00 23,0 21,0 9 5 SSW - 10 -
23.08.2019 21:00:00 23,0 21,0 8 4 SW - 10 -
23.08.2019 20:00:00 23,7 21,5 5 3 SW 1020,2 10 -
23.08.2019 19:00:00 24,0 21,0 4 2 WSW - 10 -
23.08.2019 18:00:00 25,0 22,0 5 3 W - 10 -
23.08.2019 17:00:00 24,2 21,3 11 6 ESE 1019,8 10 0,0
23.08.2019 16:00:00 28,0 19,0 13 7 E - 10 -
23.08.2019 15:00:00 27,0 20,0 9 5 NE - 10 -
23.08.2019 14:00:00 26,6 20,0 5 3 ENE 1021,1 10 -
23.08.2019 13:00:00 25,0 19,0 8 4 NNW - 10 -
23.08.2019 12:00:00 23,0 20,0 9 5 WNW - 10 -
23.08.2019 11:00:00 21,6 20,1 13 7 W 1022,2 8 0,0
23.08.2019 10:00:00 21,0 20,0 4 2 - - 2,0 -
23.08.2019 09:00:00 21,0 20,0 11 6 SW - 8 -
23.08.2019 08:00:00 21,3 19,5 5 3 NW 1021,5 10 -
23.08.2019 07:00:00 21,0 20,0 4 2 - - 10 -
23.08.2019 06:00:00 21,0 19,0 5 3 SW - 10 -
23.08.2019 05:00:00 21,4 19,7 2 1 - 1020,4 10 0,0
23.08.2019 04:00:00 21,0 19,0 5 3 W - 10 -
23.08.2019 03:00:00 22,0 20,0 4 2 WSW - 10 -
23.08.2019 02:00:00 21,9 19,2 4 2 - 1020,6 10 -
23.08.2019 01:00:00 22,0 19,0 5 3 WSW - 10 -
23.08.2019 00:00:00 23,0 19,0 5 3 W - 10 -
22.08.2019 23:00:00 23,1 18,7 4 2 - 1020,3 10 0,0
22.08.2019 22:00:00 24,0 19,0 8 4 ENE - 10 -
22.08.2019 21:00:00 25,0 20,0 8 4 E - 10 -
22.08.2019 20:00:00 25,3 19,7 4 2 - 1019,9 10 -
22.08.2019 19:00:00 26,0 20,0 9 5 E - 10 -
22.08.2019 18:00:00 26,0 21,0 5 3 ENE - 10 -
22.08.2019 17:00:00 27,6 19,3 9 5 NNE 1019,6 10 0,0
22.08.2019 16:00:00 27,0 20,0 8 4 NNE - 10 -
22.08.2019 15:00:00 27,0 20,0 9 5 N - 10 -
22.08.2019 14:00:00 26,5 19,6 8 4 NW 1020,8 10 -
22.08.2019 13:00:00 26,0 19,0 5 3 NNW - 10 -
22.08.2019 12:00:00 24,0 19,0 5 3 - - 10 -
22.08.2019 11:00:00 23,9 18,7 4 2 - 1021,5 10 0,0
22.08.2019 10:00:00 23,0 19,0 5 3 N - 10 -
22.08.2019 09:00:00 22,0 18,0 8 4 NE - 10 -
22.08.2019 08:00:00 22,2 18,2 4 2 - 1020,9 10 -
22.08.2019 07:00:00 21,0 20,0 4 2 WNW - 10 -
22.08.2019 06:00:00 21,0 20,0 5 3 W - 10 -
22.08.2019 05:00:00 21,4 20,3 2 1 - 1019,6 10 0,0
22.08.2019 04:00:00 21,0 20,0 4 2 - - 10 -
22.08.2019 03:00:00 22,0 20,0 2 1 - - 10 -
22.08.2019 02:00:00 22,2 20,0 2 1 - 1019,7 10 -
22.08.2019 01:00:00 - - - - - - - -
22.08.2019 00:00:00 22,0 20,0 4 2 - - 10 -
21.08.2019 23:00:00 21,9 19,9 2 1 - 1019,6 10 0,0
21.08.2019 22:00:00 22,0 20,0 4 2 - - 10 -
21.08.2019 21:00:00 22,0 20,0 8 4 S - 10 -
21.08.2019 20:00:00 23,6 19,0 13 7 SSE 1018,1 6 -
21.08.2019 19:00:00 27,0 16,0 37 20 ESE - 10 -
21.08.2019 18:00:00 32,0 21,0 8 4 NE - 10 -
21.08.2019 17:00:00 32,6 20,0 5 3 - 1016,5 10 0,0
21.08.2019 16:00:00 32,0 20,0 9 5 NNE - 10 -
21.08.2019 15:00:00 31,0 20,0 8 4 N - 10 -
21.08.2019 14:00:00 30,3 20,0 8 4 - 1017,5 10 -
21.08.2019 13:00:00 29,0 21,0 11 6 NNW - 10 -
21.08.2019 12:00:00 28,0 21,0 11 6 - - 10 -
21.08.2019 11:00:00 26,7 19,2 11 6 WNW 1018,4 10 0,0
21.08.2019 10:00:00 26,0 19,0 16 9 WNW - 10 -
21.08.2019 09:00:00 25,0 18,0 15 8 W - 10 -
21.08.2019 08:00:00 23,9 18,2 11 6 W 1017,7 10 -
21.08.2019 07:00:00 23,0 18,0 13 7 WSW - 10 -
21.08.2019 06:00:00 22,0 17,0 9 5 W - 10 -
21.08.2019 05:00:00 21,1 17,2 2 1 - 1016,6 10 0,0
21.08.2019 04:00:00 22,0 18,0 5 3 WSW - 10 -
21.08.2019 03:00:00 22,0 16,0 5 3 WNW - 10 -
21.08.2019 02:00:00 23,0 17,0 5 3 S - 10 -
21.08.2019 01:00:00 23,0 17,0 2 1 - - 10 -
21.08.2019 00:00:00 25,0 18,0 8 4 E - 10 -
20.08.2019 23:00:00 25,3 17,7 11 6 E 1015,8 10 0,0
20.08.2019 22:00:00 27,0 18,0 13 7 E - 10 -
20.08.2019 21:00:00 29,0 18,0 11 6 E - 10 -
20.08.2019 20:00:00 30,1 19,9 21 11 E 1015,1 10 -
20.08.2019 19:00:00 32,0 21,0 22 12 E - 10 -
20.08.2019 18:00:00 34,0 19,0 16 9 E - 10 -
20.08.2019 17:00:00 35,0 18,0 11 6 NE - 10 -
20.08.2019 16:00:00 34,0 18,0 9 5 ENE - 10 -
20.08.2019 15:00:00 33,0 17,0 5 3 N - 10 -
20.08.2019 14:00:00 32,5 16,9 5 3 - 1016,6 10 -
20.08.2019 13:00:00 31,0 19,0 4 2 - - 10 -
20.08.2019 12:00:00 29,0 19,0 8 4 - - 10 -
20.08.2019 11:00:00 27,7 18,8 5 3 - 1017,5 10 0,0
20.08.2019 10:00:00 26,0 16,0 9 5 WNW - 10 -
20.08.2019 09:00:00 24,0 14,0 5 3 WSW - 10 -
20.08.2019 08:00:00 22,3 12,7 5 3 SW 1017,0 10 -
20.08.2019 07:00:00 20,0 12,0 8 4 SSW - 10 -
20.08.2019 06:00:00 21,0 13,0 8 4 SSW - 10 -
20.08.2019 05:00:00 21,0 13,5 5 3 W 1016,6 10 0,0
20.08.2019 04:00:00 22,0 13,0 8 4 WSW - 10 -
20.08.2019 03:00:00 23,0 13,0 8 4 SSW - 10 -
20.08.2019 02:00:00 23,2 13,3 8 4 SSW 1016,3 10 -
20.08.2019 01:00:00 23,0 15,0 4 2 SSW - 10 -
20.08.2019 00:00:00 24,0 17,0 4 2 - - 10 -
19.08.2019 23:00:00 24,8 17,1 5 3 E 1016,2 10 0,0
19.08.2019 22:00:00 27,0 17,0 11 6 E - 10 -
19.08.2019 21:00:00 29,0 16,0 18 10 ESE - 10 -
19.08.2019 20:00:00 31,0 19,0 18 10 E - 10 -
19.08.2019 19:00:00 32,0 19,0 21 11 E - 10 -
19.08.2019 18:00:00 34,0 15,0 11 6 E - 10 -
19.08.2019 17:00:00 33,7 14,4 9 5 NE 1014,8 10 0,0
19.08.2019 16:00:00 33,0 15,0 8 4 - - 10 -
19.08.2019 15:00:00 33,0 14,0 8 4 - - 10 -
19.08.2019 14:00:00 31,2 15,5 9 5 NNE 1015,8 10 -
19.08.2019 13:00:00 30,0 17,0 11 6 W - 10 -
19.08.2019 12:00:00 29,0 16,0 9 5 WNW - 10 -
19.08.2019 11:00:00 27,4 16,4 8 4 W 1016,0 10 0,0
19.08.2019 10:00:00 25,0 15,0 9 5 WNW - 10 -
19.08.2019 09:00:00 24,0 14,0 4 2 - - 10 -
19.08.2019 08:00:00 22,0 13,4 5 3 SSW 1015,6 10 -
19.08.2019 07:00:00 19,0 13,0 5 3 WSW - 10 -
19.08.2019 06:00:00 20,0 13,0 8 4 WSW - 10 -
19.08.2019 05:00:00 20,9 12,8 5 3 SW 1015,1 10 0,0
19.08.2019 04:00:00 21,0 14,0 5 3 W - 10 -
19.08.2019 03:00:00 22,0 15,0 8 4 SW - 10 -
19.08.2019 02:00:00 22,3 16,0 8 4 SW 1015,2 10 -
19.08.2019 01:00:00 24,0 15,0 8 4 SSW - 10 -
19.08.2019 00:00:00 23,0 18,0 8 4 ESE - 10 -
18.08.2019 23:00:00 24,0 18,7 11 6 E 1014,8 10 0,0
18.08.2019 22:00:00 26,0 19,0 11 6 E - 10 -
18.08.2019 21:00:00 28,0 18,0 16 9 E - 10 -
18.08.2019 20:00:00 28,9 18,2 16 9 E 1013,7 10 -
18.08.2019 19:00:00 31,0 19,0 18 10 E - 10 -
18.08.2019 18:00:00 32,0 16,0 13 7 ENE - 10 -
18.08.2019 17:00:00 32,3 16,3 13 7 ENE 1013,8 10 0,0
18.08.2019 16:00:00 32,0 16,0 9 5 NE - 10 -
18.08.2019 15:00:00 32,0 16,0 11 6 NNE - 10 -
18.08.2019 14:00:00 30,6 15,2 5 3 - 1015,0 10 -
18.08.2019 13:00:00 30,0 17,0 5 3 - - 10 -
18.08.2019 12:00:00 28,0 16,0 8 4 - - 10 -
18.08.2019 11:00:00 26,6 16,5 8 4 NNW 1015,9 10 0,0
18.08.2019 10:00:00 25,0 16,0 8 4 W - 10 -
18.08.2019 09:00:00 23,0 17,0 8 4 W - 10 -
18.08.2019 08:00:00 21,4 15,6 5 3 SW 1015,7 10 -
18.08.2019 07:00:00 20,0 16,0 4 2 - - 10 -

tt = temperature
td = dewpoint
ff = wind speed
dd = wind direction
ppp = reduced air pressure
vv = visibility
rr = precipitation

Next stations